GW5777 Weather Reports


Display with metric or nautical units.
time (UTC)temp
F
wind
direction
speed
MPH
gust
MPH
rain 1hr
in
rain 24hr
in
rain mn
in
humidity
%
barometer
mb
20260510214143 43 273 6.0 17.0 0.00 0.00 0.00 54 1019.9
20260510213640 43 302 5.0 13.0 0.00 0.00 0.00 55 1020.0
20260510213137 44 306 11.0 14.0 0.00 0.00 0.00 55 1019.7
20260510212633 44 9 15.0 18.0 0.00 0.00 0.00 55 1019.7
20260510212130 44 296 10.0 16.0 0.00 0.00 0.00 56 1019.6
20260510211626 43 317 6.0 11.0 0.00 0.00 0.00 57 1019.8
20260510211121 44 20 7.0 13.0 0.00 0.00 0.00 56 1019.6
20260510210618 43 353 6.0 12.0 0.00 0.00 0.00 57 1019.6
20260510210114 43 294 4.0 17.0 0.00 0.00 0.00 57 1019.6
20260510205612 44 285 8.0 15.0 0.00 0.00 0.00 57 1019.4
20260510205103 44 6 11.0 15.0 0.00 0.00 0.00 57 1019.5
20260510204559 44 355 8.0 8.0 0.00 0.00 0.00 56 1019.5
20260510204056 44 338 10.0 13.0 0.00 0.00 0.00 54 1019.4
20260510203553 44 266 12.0 14.0 0.00 0.00 0.00 54 1019.4
20260510203050 44 300 8.0 15.0 0.00 0.00 0.00 54 1019.5
20260510202549 45 274 6.0 13.0 0.00 0.00 0.00 53 1019.3
20260510202045 45 251 6.0 16.0 0.00 0.00 0.00 52 1019.2
20260510201543 45 316 5.0 14.0 0.00 0.00 0.00 52 1019.4
20260510201039 46 285 0.0 17.0 0.00 0.00 0.00 53 1019.4
20260510200535 45 22 11.0 14.0 0.00 0.00 0.00 55 1019.1
20260510200033 44 20 7.0 13.0 0.00 0.00 0.00 54 1019.2
20260510195531 44 332 2.0 8.0 0.00 0.00 0.00 54 1019.0
20260510195026 44 358 9.0 16.0 0.00 0.00 0.00 54 1019.1
20260510194521 45 351 5.0 13.0 0.00 0.00 0.00 56 1019.2
20260510194018 45 20 6.0 14.0 0.00 0.00 0.00 54 1019.1
20260510193513 44 321 3.0 6.0 0.00 0.00 0.00 54 1019.0
20260510193009 44 267 19.0 20.0 0.00 0.00 0.00 53 1019.1
20260510192503 44 305 12.0 20.0 0.00 0.00 0.00 52 1019.3
20260510191959 45 322 8.0 12.0 0.00 0.00 0.00 53 1019.3
20260510191455 44 334 6.0 12.0 0.00 0.00 0.00 53 1019.1
20260510190953 43 324 9.0 20.0 0.00 0.00 0.00 53 1019.0
20260510190450 44 267 6.0 16.0 0.00 0.00 0.00 52 1018.9
20260510185947 44 269 14.0 15.0 0.00 0.00 0.00 51 1018.9
20260510185444 45 230 10.0 14.0 0.00 0.00 0.00 51 1018.8
20260510184941 45 279 8.0 15.0 0.00 0.00 0.00 51 1018.6
20260510184439 45 261 9.0 17.0 0.00 0.00 0.00 51 1018.5
20260510183938 45 309 8.0 15.0 0.00 0.00 0.00 51 1018.4
20260510183435 45 207 4.0 14.0 0.00 0.00 0.00 51 1018.2
20260510182929 46 269 18.0 20.0 0.00 0.00 0.00 50 1018.2
20260510182426 45 288 12.0 20.0 0.00 0.00 0.00 51 1018.1
20260510181922 45 249 9.0 15.0 0.00 0.00 0.00 50 1018.0
20260510181420 45 236 7.0 16.0 0.00 0.00 0.00 51 1017.9
20260510180916 45 300 9.0 19.0 0.00 0.00 0.00 50 1017.8
20260510180413 45 270 10.0 13.0 0.00 0.00 0.00 50 1017.9
20260510175910 45 256 3.0 15.0 0.00 0.00 0.00 52 1017.9
20260510175406 45 285 13.0 21.0 0.00 0.00 0.00 49 1017.4
20260510174902 45 271 12.0 13.0 0.00 0.00 0.00 50 1017.6
20260510174400 45 290 8.0 21.0 0.00 0.00 0.00 49 1017.8
20260510173856 45 272 14.0 17.0 0.00 0.00 0.00 50 1017.8
20260510173352 45 297 6.0 13.0 0.00 0.00 0.00 50 1017.8
20260510172848 46 301 7.0 18.0 0.00 0.00 0.00 49 1017.4
20260510172344 46 259 2.0 13.0 0.00 0.00 0.00 49 1017.9
20260510171841 46 271 19.0 20.0 0.00 0.00 0.00 49 1017.9
20260510171338 46 278 8.0 18.0 0.00 0.00 0.00 49 1017.6
20260510170835 45 263 14.0 22.0 0.00 0.00 0.00 48 1017.6
20260510170331 45 6 4.0 12.0 0.00 0.00 0.00 48 1017.8
20260510165826 45 352 9.0 14.0 0.00 0.00 0.00 48 1017.9
20260510165324 45 274 6.0 20.0 0.00 0.00 0.00 49 1017.6
20260510164821 45 263 4.0 11.0 0.00 0.00 0.00 51 1017.6
20260510164318 45 232 7.0 18.0 0.00 0.00 0.00 49 1017.8
20260510163818 46 290 14.0 17.0 0.00 0.00 0.00 48 1017.5
20260510163314 46 234 4.0 13.0 0.00 0.00 0.00 47 1017.6
20260510162814 46 298 10.0 15.0 0.00 0.00 0.00 48 1017.5
20260510162311 46 278 9.0 19.0 0.00 0.00 0.00 46 1017.4
20260510161807 46 285 4.0 11.0 0.00 0.00 0.00 48 1017.3
20260510161303 46 307 8.0 17.0 0.00 0.00 0.00 49 1017.3
20260510160800 46 273 5.0 14.0 0.00 0.00 0.00 47 1017.3
20260510160256 46 319 14.0 17.0 0.00 0.00 0.00 47 1017.1
20260510155751 46 255 8.0 19.0 0.00 0.00 0.00 46 1017.3
20260510155247 46 292 15.0 21.0 0.00 0.00 0.00 47 1017.1
20260510154743 46 297 9.0 16.0 0.00 0.00 0.00 47 1017.0
20260510154239 45 284 9.0 18.0 0.00 0.00 0.00 46 1017.0
20260510153734 45 271 15.0 16.0 0.00 0.00 0.00 48 1017.0
20260510153230 44 239 5.0 12.0 0.00 0.00 0.00 49 1017.1
20260510152728 44 265 4.0 11.0 0.00 0.00 0.00 49 1017.0
20260510152223 44 324 13.0 18.0 0.00 0.00 0.00 49 1016.9
20260510151720 44 244 10.0 14.0 0.00 0.00 0.00 51 1016.9
20260510151219 45 341 12.0 16.0 0.00 0.00 0.00 50 1017.1
20260510150714 44 33 4.0 16.0 0.00 0.00 0.00 53 1016.8
20260510150209 44 330 11.0 15.0 0.00 0.00 0.00 53 1016.5
20260510145706 44 225 10.0 13.0 0.00 0.00 0.00 54 1016.6
20260510145202 44 288 12.0 15.0 0.00 0.00 0.00 54 1016.6
20260510144659 43 307 6.0 11.0 0.00 0.00 0.00 56 1016.6
20260510144155 43 289 4.0 15.0 0.00 0.00 0.00 55 1016.5
20260510143651 43 285 4.0 16.0 0.00 0.00 0.00 55 1016.8
20260510143148 43 273 12.0 17.0 0.00 0.00 0.00 56 1016.5
20260510142644 42 220 6.0 13.0 0.00 0.00 0.00 55 1016.6
20260510142140 42 210 1.0 12.0 0.00 0.00 0.00 56 1016.6
20260510141637 42 298 9.0 12.0 0.00 0.00 0.00 56 1016.5
20260510141136 42 262 13.0 16.0 0.00 0.00 0.00 57 1016.7
20260510140632 42 278 7.0 13.0 0.00 0.00 0.00 56 1016.6
20260510140131 42 324 6.0 8.0 0.00 0.00 0.00 57 1016.4
20260510135627 42 249 3.0 9.0 0.00 0.00 0.00 57 1016.6
20260510135123 42 256 2.0 9.0 0.00 0.00 0.00 57 1016.6
20260510134620 41 7 3.0 9.0 0.00 0.00 0.00 59 1016.7
20260510134117 40 243 6.0 8.0 0.00 0.00 0.00 60 1016.6
20260510133614 41 281 3.0 8.0 0.00 0.00 0.00 61 1016.6
20260510133109 40 331 2.0 9.0 0.00 0.00 0.00 61 1016.6
20260510132606 40 278 3.0 8.0 0.00 0.00 0.00 59 1016.4
20260510132103 40 334 7.0 7.0 0.00 0.00 0.00 61 1016.5
20260510131600 40 289 4.0 9.0 0.00 0.00 0.00 61 1016.6
20260510131057 40 21 5.0 6.0 0.00 0.00 0.00 62 1016.5
20260510130554 40 309 5.0 8.0 0.00 0.00 0.00 62 1016.5
20260510130051 39 33 6.0 13.0 0.00 0.00 0.00 63 1016.3
20260510125548 39 288 6.0 11.0 0.00 0.00 0.00 64 1016.2
20260510125044 39 352 5.0 10.0 0.00 0.00 0.00 62 1016.1
20260510124541 39 306 3.0 6.0 0.00 0.00 0.00 65 1016.2
20260510124038 39 301 5.0 11.0 0.00 0.00 0.00 65 1016.3
20260510123533 38 258 0.0 10.0 0.00 0.00 0.00 67 1016.1
20260510123029 38 297 4.0 9.0 0.00 0.00 0.00 67 1015.9
20260510122525 38 258 5.0 10.0 0.00 0.00 0.00 68 1015.8
20260510122021 38 284 4.0 5.0 0.00 0.00 0.00 70 1015.9
20260510121519 37 159 2.0 8.0 0.00 0.00 0.00 72 1015.9
20260510121016 37 273 8.0 8.0 0.00 0.00 0.00 72 1015.8
20260510120513 36 234 2.0 2.0 0.00 0.00 0.00 74 1015.8
20260510120009 36 218 2.0 5.0 0.00 0.00 0.00 73 1015.7
20260510115506 37 188 2.0 4.0 0.00 0.00 0.00 73 1015.7
20260510115002 37 249 4.0 5.0 0.00 0.00 0.00 73 1015.8
20260510114459 37 209 2.0 3.0 0.00 0.00 0.00 73 1015.7
20260510113954 37 282 3.0 5.0 0.00 0.00 0.00 73 1015.6
20260510113449 36 190 2.0 4.0 0.00 0.00 0.00 74 1015.6
20260510112947 36 171 2.0 3.0 0.00 0.00 0.00 75 1015.5
20260510112445 36 287 4.0 5.0 0.00 0.00 0.00 75 1015.3
20260510111941 36 312 1.0 4.0 0.00 0.00 0.00 76 1015.3
20260510111437 35 201 2.0 5.0 0.00 0.00 0.00 76 1015.3
20260510110933 35 274 4.0 4.0 0.00 0.00 0.00 77 1015.2
20260510110429 35 240 2.0 4.0 0.00 0.00 0.00 78 1015.3
20260510105925 35 232 2.0 3.0 0.00 0.00 0.00 78 1015.1
20260510105420 34 228 2.0 4.0 0.00 0.00 0.00 79 1015.0
20260510104916 34 224 3.0 5.0 0.00 0.00 0.00 79 1014.8
20260510104413 34 204 2.0 4.0 0.00 0.00 0.00 79 1014.9
20260510103910 34 207 2.0 3.0 0.00 0.00 0.00 79 1014.9
20260510103407 33 206 0.0 4.0 0.00 0.00 0.00 81 1014.7
20260510102902 33 217 3.0 6.0 0.00 0.00 0.00 82 1014.6
20260510102358 33 198 2.0 6.0 0.00 0.00 0.00 81 1014.4
20260510101856 33 185 2.0 3.0 0.00 0.00 0.00 80 1014.2
20260510101354 33 231 2.0 3.0 0.00 0.00 0.00 80 1014.0
20260510100850 33 235 2.0 3.0 0.00 0.00 0.00 79 1014.1
20260510100348 33 254 2.0 2.0 0.00 0.00 0.00 78 1014.1
20260510095844 33 214 2.0 7.0 0.00 0.00 0.00 80 1014.1
20260510095338 33 206 0.0 4.0 0.00 0.00 0.00 79 1014.0
20260510094833 33 171 2.0 4.0 0.00 0.00 0.00 78 1014.0
20260510094328 33 219 0.0 6.0 0.00 0.00 0.00 77 1013.9
20260510093825 34 237 2.0 4.0 0.00 0.00 0.00 76 1013.9
20260510093321 34 212 2.0 6.0 0.00 0.00 0.00 76 1013.8
20260510092817 34 202 2.0 4.0 0.00 0.00 0.00 76 1014.0
20260510092313 34 218 3.0 3.0 0.00 0.00 0.00 77 1013.8
20260510091809 34 256 2.0 4.0 0.00 0.00 0.00 76 1013.8
20260510091306 34 210 2.0 5.0 0.00 0.00 0.00 76 1013.6
20260510090803 34 249 2.0 4.0 0.00 0.00 0.00 75 1013.5
20260510090300 35 271 2.0 3.0 0.00 0.00 0.00 74 1013.3
20260510085755 35 213 2.0 4.0 0.00 0.00 0.00 73 1013.4
20260510085249 35 265 4.0 6.0 0.00 0.00 0.00 73 1013.5
20260510084745 34 248 2.0 6.0 0.00 0.00 0.00 74 1013.4
20260510084243 34 225 3.0 6.0 0.00 0.00 0.00 74 1013.3
20260510083739 34 228 2.0 6.0 0.00 0.00 0.00 74 1013.4
20260510083236 34 270 3.0 6.0 0.00 0.00 0.00 73 1013.4
20260510082731 34 190 2.0 2.0 0.00 0.00 0.00 73 1013.3
20260510082229 35 179 2.0 2.0 0.00 0.00 0.00 72 1013.0
20260510081728 35 168 2.0 4.0 0.00 0.00 0.00 72 1013.1
20260510081224 35 233 2.0 4.0 0.00 0.00 0.00 72 1013.0
20260510080719 35 285 0.0 2.0 0.00 0.00 0.00 72 1013.1
20260510080215 34 218 2.0 3.0 0.00 0.00 0.00 74 1013.1
20260510075712 34 165 0.0 2.0 0.00 0.00 0.00 74 1013.0
20260510075210 34 188 1.0 2.0 0.00 0.00 0.00 73 1012.9
20260510074707 35 167 0.0 3.0 0.00 0.00 0.00 73 1012.8
20260510074203 35 174 0.0 3.0 0.00 0.00 0.00 72 1012.7
20260510073700 35 207 2.0 3.0 0.00 0.00 0.00 72 1012.5
20260510073155 35 171 0.0 3.0 0.00 0.00 0.00 72 1012.7
20260510072651 35 216 4.0 5.0 0.00 0.00 0.00 73 1012.7
20260510072148 34 153 2.0 2.0 0.00 0.00 0.00 73 1012.6
20260510071644 35 176 0.0 3.0 0.00 0.00 0.00 73 1012.5
20260510071142 35 191 2.0 3.0 0.00 0.00 0.00 73 1012.6
20260510070639 34 209 2.0 5.0 0.00 0.00 0.00 73 1012.5
20260510070137 34 250 0.0 4.0 0.00 0.00 0.00 73 1012.5
20260510065632 35 189 1.0 2.0 0.00 0.00 0.00 73 1012.3
20260510065128 35 229 0.0 2.0 0.00 0.00 0.00 72 1012.2
20260510064624 35 154 2.0 2.0 0.00 0.00 0.00 72 1012.1
20260510064122 34 129 0.0 2.0 0.00 0.00 0.00 73 1012.1
20260510063618 34 166 0.0 2.0 0.00 0.00 0.00 73 1012.1
20260510063115 35 209 2.0 2.0 0.00 0.00 0.00 72 1012.1
20260510062611 35 142 2.0 2.0 0.00 0.00 0.00 71 1012.0
20260510062107 35 196 3.0 3.0 0.00 0.00 0.00 71 1011.9
20260510061603 36 214 0.0 4.0 0.00 0.00 0.00 70 1012.0
20260510061100 36 249 2.0 3.0 0.00 0.00 0.00 70 1012.0
20260510060556 36 195 0.0 2.0 0.00 0.00 0.00 69 1011.9
20260510060053 36 254 0.0 2.0 0.00 0.00 0.00 69 1012.0
20260510055548 36 243 2.0 4.0 0.00 0.00 0.00 70 1011.9
20260510055047 36 284 1.0 2.0 0.00 0.00 0.00 70 1012.0
20260510054543 36 195 2.0 4.0 0.00 0.00 0.00 69 1011.7
20260510054037 36 276 4.0 4.0 0.00 0.00 0.00 69 1011.9
20260510053537 36 224 2.0 4.0 0.00 0.00 0.00 68 1011.9
20260510053035 37 214 0.0 4.0 0.00 0.00 0.00 68 1011.9
20260510052531 37 247 2.0 4.0 0.00 0.00 0.00 68 1011.9
20260510052027 37 169 0.0 3.0 0.00 0.00 0.00 67 1011.6
20260510051522 37 279 3.0 5.0 0.00 0.00 0.00 67 1011.6
20260510051019 37 241 2.0 2.0 0.00 0.00 0.00 67 1011.5
20260510050517 37 279 1.0 2.0 0.00 0.00 0.00 66 1011.3
20260510050014 37 206 2.0 5.0 0.00 0.00 0.00 65 1011.3
20260510045511 37 303 2.0 5.0 0.00 0.00 0.00 64 1011.6
20260510045007 37 223 1.0 3.0 0.00 0.00 0.00 64 1011.6
20260510044504 38 295 3.0 4.0 0.00 0.00 0.00 64 1011.5
20260510044001 38 200 1.0 5.0 0.00 0.00 0.00 63 1011.3
20260510043456 38 273 2.0 8.0 0.00 0.00 0.00 63 1011.2
20260510042955 38 239 0.0 7.0 0.00 0.00 0.00 63 1011.2
20260510042451 38 317 5.0 6.0 0.00 0.00 0.00 63 1011.1
20260510041946 38 293 3.0 6.0 0.00 0.00 0.00 64 1011.1
20260510041444 38 328 2.0 10.0 0.00 0.00 0.00 64 1011.0
20260510040942 38 302 1.0 4.0 0.00 0.00 0.00 65 1010.9
20260510040438 38 213 0.0 5.0 0.00 0.00 0.00 66 1011.2
20260510035934 38 333 4.0 6.0 0.00 0.00 0.00 67 1011.1
20260510035431 38 219 0.0 6.0 0.00 0.00 0.00 67 1011.0
20260510034931 38 279 2.0 5.0 0.00 0.00 0.00 68 1010.8
20260510034430 38 335 2.0 5.0 0.00 0.00 0.00 69 1010.9
20260510033926 38 310 4.0 6.0 0.00 0.00 0.00 69 1010.9
20260510033422 38 279 2.0 4.0 0.00 0.00 0.00 70 1010.6
20260510032919 38 305 1.0 5.0 0.00 0.00 0.00 69 1010.3
20260510032416 38 329 2.0 5.0 0.00 0.00 0.00 69 1010.5
20260510031911 38 274 3.0 4.0 0.00 0.00 0.00 69 1010.4
20260510031407 38 346 9.0 10.0 0.00 0.00 0.00 69 1010.4
20260510030906 38 264 2.0 6.0 0.00 0.00 0.00 68 1010.5
20260510030403 39 5 2.0 6.0 0.00 0.00 0.00 67 1010.2
20260510025901 39 261 2.0 6.0 0.00 0.00 0.00 66 1010.2
20260510025358 39 274 4.0 7.0 0.00 0.00 0.00 65 1010.2
20260510024855 39 261 4.0 7.0 0.00 0.00 0.00 64 1010.3
20260510024351 39 271 3.0 5.0 0.00 0.00 0.00 64 1010.2
20260510023847 40 309 2.0 6.0 0.00 0.00 0.00 63 1010.2
20260510023344 40 296 0.0 4.0 0.00 0.00 0.00 63 1010.0
20260510022842 40 249 2.0 3.0 0.00 0.00 0.00 62 1010.1
20260510022341 40 242 3.0 6.0 0.00 0.00 0.00 62 1010.0
20260510021839 40 355 3.0 4.0 0.00 0.00 0.00 62 1010.1
20260510021338 40 284 2.0 3.0 0.00 0.00 0.00 61 1010.2
20260510020835 40 3 4.0 7.0 0.00 0.00 0.00 61 1010.0
20260510020334 41 271 4.0 6.0 0.00 0.00 0.00 61 1010.1
20260510015830 41 2 4.0 8.0 0.00 0.00 0.00 60 1010.3
20260510015326 41 336 4.0 9.0 0.00 0.00 0.00 60 1009.8
20260510014822 41 359 9.0 10.0 0.00 0.00 0.00 60 1010.0
20260510014319 41 299 2.0 9.0 0.00 0.00 0.00 60 1009.8
20260510013815 42 1 2.0 8.0 0.00 0.00 0.00 59 1009.6
20260510013311 42 316 4.0 6.0 0.00 0.00 0.00 59 1009.7
20260510012806 42 59 0.0 10.0 0.00 0.00 0.00 59 1009.5
20260510012307 42 357 4.0 11.0 0.00 0.00 0.00 58 1009.2
20260510011806 43 269 5.0 12.0 0.00 0.00 0.00 58 1008.9
20260510011302 43 265 6.0 13.0 0.00 0.00 0.00 59 1009.0
20260510010759 43 343 3.0 12.0 0.00 0.00 0.00 59 1008.9
20260510010256 43 321 2.0 11.0 0.00 0.00 0.00 58 1008.6
20260510005753 43 10 10.0 18.0 0.00 0.00 0.00 58 1008.7
20260510005249 43 12 12.0 16.0 0.00 0.00 0.00 58 1008.4
20260510004747 43 13 10.0 15.0 0.00 0.00 0.00 59 1008.5
20260510004244 44 326 5.0 6.0 0.00 0.00 0.00 60 1008.4
20260510003742 44 300 4.0 10.0 0.00 0.00 0.00 60 1008.1
20260510003238 44 16 6.0 10.0 0.00 0.00 0.00 60 1007.9
20260510002736 44 337 6.0 15.0 0.00 0.00 0.00 60 1007.9
20260510002234 44 308 6.0 18.0 0.00 0.00 0.00 59 1007.7
20260510001731 44 278 9.0 17.0 0.00 0.00 0.00 58 1007.5
20260510001230 45 337 11.0 19.0 0.00 0.00 0.00 57 1007.6
20260510000725 45 324 4.0 16.0 0.00 0.00 0.00 56 1007.5
20260510000222 45 7 17.0 19.0 0.00 0.00 0.00 54 1007.3
20260509235719 46 350 11.0 22.0 0.00 0.00 0.00 54 1007.5
20260509235216 46 327 16.0 19.0 0.00 0.00 0.00 53 1007.0
20260509234712 46 7 12.0 24.0 0.00 0.00 0.00 52 1006.7
20260509234209 47 350 6.0 8.0 0.00 0.00 0.00 50 1006.7
20260509233708 48 323 9.0 16.0 0.00 0.00 0.00 48 1006.6
20260509233204 48 340 8.0 20.0 0.00 0.00 0.00 46 1006.5
20260509232700 48 15 14.0 23.0 0.00 0.00 0.00 46 1006.3
20260509232157 49 344 14.0 25.0 0.00 0.00 0.00 44 1006.2
20260509231654 49 290 8.0 15.0 0.00 0.00 0.00 44 1006.0
20260509231152 49 3 14.0 18.0 0.00 0.00 0.00 43 1005.9
20260509230648 48 317 8.0 24.0 0.00 0.00 0.00 43 1006.0
20260509230145 50 321 18.0 20.0 0.00 0.00 0.00 41 1005.7
20260509225641 50 287 4.0 21.0 0.00 0.00 0.00 42 1005.8
20260509225137 49 4 4.0 14.0 0.00 0.00 0.00 42 1005.7
20260509224632 49 271 12.0 18.0 0.00 0.00 0.00 40 1005.5
20260509224129 49 334 20.0 23.0 0.00 0.00 0.00 40 1005.5
20260509223626 49 329 10.0 17.0 0.00 0.00 0.00 43 1005.3
20260509223124 49 355 6.0 12.0 0.00 0.00 0.00 44 1005.2
20260509222620 50 312 11.0 20.0 0.00 0.00 0.00 43 1005.2
20260509222116 50 267 15.0 22.0 0.00 0.00 0.00 42 1004.9
20260509221612 51 304 6.0 14.0 0.00 0.00 0.00 42 1004.8
20260509221108 49 3 9.0 14.0 0.00 0.00 0.00 43 1004.7
20260509220604 50 337 4.0 20.0 0.00 0.00 0.00 42 1004.8
20260509220100 51 293 13.0 21.0 0.00 0.00 0.00 42 1004.8
20260509215555 50 10 10.0 14.0 0.00 0.00 0.00 42 1004.5
20260509215053 50 359 11.0 23.0 0.00 0.00 0.00 41 1004.3
20260509214550 51 320 9.0 16.0 0.00 0.00 0.00 42 1004.4